Regional Weather Roundup
Issued by NWS Cleveland, OH

Home | Current Version | Previous Version | Graphics & Text | Print | Product List | Glossary On
Versions: 1 2 3 4 5 6 7 8 9 10 11 12 13 14 15 16 17 18 19 20 21 22 23 24 25 26 27 28 29 30 31 32 33 34 35 36 37 38 39 40 41 42 43 44 45 46 47 48 49 50
000
ASUS41 KCLE 291510
RWRCLE
OHIO REGIONAL WEATHER ROUNDUP
NATIONAL WEATHER SERVICE WILMINGTON, OH
1100 AM EDT WED MAR 29 2017

NOTE: "FAIR" INDICATES FEW OR NO CLOUDS BELOW 12,000 FEET WITH NO
SIGNIFICANT WEATHER AND/OR OBSTRUCTIONS TO VISIBILITY.

OHZ001>008-015>018-024>027-034-035-043-044-291600-
   NORTHWEST OHIO

CITY           SKY/WX    TMP DP  RH WIND       PRES   REMARKS
DEFIANCE       FAIR      44  35  70 NE10      30.28S
FINDLAY        FAIR      46  37  71 NE14      30.25F
TOLEDO EXPRESS FAIR      46  36  68 E8        30.26F
TOLEDO EXEC    FAIR      45  38  76 E7        30.28F
LIMA           FAIR      47  40  76 E14       30.24R
$$

OHZ009>014-019>023-028>033-038-089-291600-
   NORTHEAST OHIO

CITY           SKY/WX    TMP DP  RH WIND       PRES   REMARKS
CLE-HOPKINS    FAIR      49  36  61 NE7       30.30R
CLE-LAKEFRONT  FAIR      40  37  89 N8        30.29R FOG
CUY CO. ARPT   SUNNY     48  37  66 NE9       30.28R
LORAIN-ELYRIA  FAIR      46  35  65 VRB7      30.27S
ASHTABULA      FAIR      47  36  65 VRB5      30.28R
AKRON-CANTON   FAIR      48  36  63 VRB5      30.25R
WOOSTER        FAIR      46  38  73 NE10      30.26R
MANSFIELD      CLOUDY    40  37  89 NE6       30.25S
YOUNGSTOWN     FAIR      48  35  60 E8        30.25R
$$

OHZ042-051>053-060>062-070>072-077>081-291600-
  SOUTHWEST OHIO

CITY           SKY/WX    TMP DP  RH WIND       PRES   REMARKS
CINC-COVINGTON FAIR      50  38  63 NE10      30.19R
CINC-LUNKEN    FAIR      48  40  73 NE8       30.22S
HAMILTON       CLOUDY    44  39  82 E9        30.23R
DAYTON         PTSUNNY   47  39  74 E12       30.22S
WRIGHT-PAT AFB PTSUNNY   48  41  77 E15       30.21F
DAYTON GENERAL CLOUDY    45  40  82 E9        30.20S
WILMINGTON     CLOUDY    43  40  89 E10G18    30.20S
$$

OHZ036-037-039>041-045>050-054>059-063>069-073>076-082>088-291600-
  CENTRAL AND SOUTHEAST OHIO

CITY           SKY/WX    TMP DP  RH WIND       PRES   REMARKS
COLUMBUS       PTSUNNY   51  40  65 E9        30.22S
OSU AIRPORT    FAIR      50  39  66 NE13      30.22S
BOLTON FIELD   MOSUNNY   48  39  71 E9        30.22S
RICKENBACK AFB CLOUDY    47  40  75 E14       30.22S
NEWARK         FAIR      48  37  65 NE10      30.22S
MARION         CLOUDY    42  38  85 NE12      30.26S
LANCASTER      CLOUDY    49  41  74 NE10      30.23R
ZANESVILLE     CLOUDY    48  38  68 E8        30.23R
NEW PHILLY     FAIR      49  36  61 NE7       30.25R
$$



USA.gov is the U.S. government's official web portal to all federal, state and local government web resources and services.